Location: Ipswich
(52.0579°N, 1.1528°E)
Time: 10:13:47
(UTC+01:00)

ISS - Pass Details

Date: 01 May 2026
Orbit: 414 x 424 km, 51.6° (Epoch: 8 May)

Event Time Altitude Azimuth Distance (km) Brightness Sun altitude
Exits shadow 03:49:01 15° 268° (W) 1,234 -1.8 -12.8°
Maximum altitude 03:51:44 86° 179° (S) 426 -3.8 -12.5°
Drops below altitude 10° 03:55:06 10° 92° (E) 1,504 -0.3 -12.1°
Sets 03:57:13 0° 92° (E) 2,370 0.8 -11.9°
